Location: Unspecified
(0.0000°N, 0.0000°E)
Time: 20:53:16
(UTC+00:00)

Tiangong 1 - Pass Details

Date: 07 January 2018
Orbit: 264 x 288 km, 42.8° (Epoch: 16 January)

Event Time Altitude Azimuth Distance (km) Brightness Sun altitude
Exits shadow 05:28:37 - 338° (NNW) 1,281 3.3 -8.7°
Reaches altitude 10° 05:29:11 10° 343° (NNW) 1,067 2.9 -8.5°
Maximum altitude 05:31:16 27° 45° (NE) 560 2.2 -8.1°
Drops below altitude 10° 05:33:25 10° 108° (ESE) 1,084 5.1 -7.6°
Sets 05:35:29 0° 121° (ESE) 1,905 6.9 -7.1°
